This is the latest recevied weather packets stored in our database for station/object K9VSK-9. If no packets are shown the sender has not sent any weather packets the latest 10 day(s).
| Time | Temp. | Humidity | Pressure | Rain* | Wind** | Luminosity | Snow |
|---|---|---|---|---|---|---|---|
| 1778188626 | 15° C | 65% | 1013 hPa | 0 mm | - | - | - |
| 1778188325 | 15° C | 66% | 1013 hPa | 0 mm | - | - | - |
| 1778188025 | 14.44° C | 69% | 1013.2 hPa | 0 mm | - | - | - |
| 1778187725 | 15° C | 65% | 1013.3 hPa | 0 mm | - | - | - |
| 1778187425 | 15° C | 65% | 1013.4 hPa | 0 mm | - | - | - |
| 1778187124 | 15° C | 66% | 1013.5 hPa | 0 mm | - | - | - |
| 1778186524 | 14.44° C | 62% | 1013.4 hPa | 0 mm | - | - | - |
| 1778186223 | 14.44° C | 62% | 1013.4 hPa | 0 mm | - | - | - |
| 1778185924 | 15° C | 61% | 1013.3 hPa | 0 mm | - | - | - |
| 1778185624 | 15.56° C | 62% | 1013.4 hPa | 0 mm | - | - | - |
| 1778185323 | 15.56° C | 63% | 1013.3 hPa | 0 mm | - | - | - |
| 1778185023 | 15.56° C | 61% | 1013.5 hPa | 0 mm | - | - | - |
| 1778184722 | 15.56° C | 61% | 1013.7 hPa | 0 mm | - | - | - |
| 1778184422 | 15° C | 62% | 1013.9 hPa | 0 mm | - | - | - |
| 1778184122 | 15° C | 64% | 1014.1 hPa | 0 mm | - | - | - |
| 1778183821 | 15° C | 65% | 1014.1 hPa | 0 mm | - | - | - |
| 1778183521 | 14.44° C | 65% | 1014.1 hPa | 0 mm | - | - | - |
| 1778183221 | 14.44° C | 67% | 1014.2 hPa | 0 mm | - | - | - |
| 1778182921 | 13.89° C | 70% | 1014.3 hPa | 0 mm | - | - | - |
| 1778182620 | 13.89° C | 69% | 1014.4 hPa | 0 mm | - | - | - |
| 1778182320 | 13.33° C | 69% | 1014.4 hPa | 0 mm | - | - | - |
| 1778182020 | 13.33° C | 74% | 1014.6 hPa | 0 mm | - | - | - |
| 1778181719 | 12.78° C | 74% | 1014.8 hPa | 0 mm | - | - | - |
| 1778181419 | 12.22° C | 76% | 1014.8 hPa | 0 mm | - | - | - |
| 1778181119 | 12.22° C | 75% | 1014.6 hPa | 0 mm | - | - | - |
* Rain latest hour (hover to see other rain measurements)
** Current wind speed in m/s (hover to see current wind gust speed)